Date String (YYYY-MM-DD hh:mm:ss) UTC,Instrument flags,absolute air pressure of the measurement (hPa),sample flow rate (lpm),inlet stack bypass flow (lpm),air temperature of the measurement (°C),ambient temperature measured by the external sensor (°C),aerosol sample conditioner tube jacket temperature (°C),OPC LED temperature (°C),internal box temperature (°C),relative humidity of the measurement (%),span deviation,mass concentration of particles derived from Lorenz-Mie calculation of OPC scattering (μg/m³),mass concentration of particles derived from Lorenz-Mie calculation of OPC scattering (μg/m³),mass concentration of particles derived from Lorenz-Mie calculation of OPC scattering (μg/m³)
DateTimeUTC,F1_M11,P_M11,Q1_M11,Q2_M11,T1_M11,T2_M11,T3_M11,T4_M11,T5_M11,U1_M11,ZSPAN_M11,X0_M11,X2_M11,X1_M11
2023-09-23 02:00:00,SystemResetWarning,0826.9,4.99,000.00,028.3,025.8,000.0,036.5,029.8,15.0,0000.0,0012.42,0004.28,0003.24
2023-09-23 02:01:00,SystemResetWarning,0826.9,5.01,000.00,028.2,024.8,000.0,036.4,029.6,15.4,0000.0,0011.50,0004.32,0003.24
2023-09-23 02:02:00,SystemResetWarning,0826.9,5.01,000.00,028.1,024.8,000.0,036.4,029.5,16.1,0000.0,0011.12,0004.27,0003.24
2023-09-23 02:03:00,SystemResetWarning,0827.0,5.00,000.00,028.1,025.0,000.0,036.4,029.5,16.4,0000.0,0011.16,0004.29,0003.25
2023-09-23 02:04:00,SystemResetWarning,0827.0,4.99,000.00,028.0,025.3,000.0,036.4,029.5,16.6,0000.0,0011.00,0004.29,0003.25
2023-09-23 02:05:00,SystemResetWarning,0827.1,5.00,000.00,028.0,025.7,000.0,036.4,029.6,16.8,0000.0,0011.24,0004.32,0003.25
2023-09-23 02:06:00,SystemResetWarning,0827.1,5.00,000.00,028.1,026.0,000.0,036.4,029.7,16.8,0000.0,0012.62,0004.32,0003.25
2023-09-23 02:07:00,SystemResetWarning,0827.0,4.99,000.00,028.1,026.3,000.0,036.4,029.7,17.1,0000.0,0013.62,0004.34,0003.25
2023-09-23 02:08:00,SystemResetWarning,0827.1,4.99,000.00,028.1,026.5,000.0,036.4,029.8,17.1,0000.0,0012.84,0004.34,0003.24
2023-09-23 02:09:00,SystemResetWarning,0827.1,5.01,000.00,028.2,026.7,000.0,036.4,029.9,17.0,0000.0,0013.63,0004.31,0003.24
2023-09-23 02:10:00,SystemResetWarning,0827.1,5.01,000.00,028.2,026.9,000.0,036.4,029.9,16.9,0000.0,0014.00,0004.24,0003.23
2023-09-23 02:11:00,SystemResetWarning,0827.2,5.01,000.00,028.2,027.0,000.0,036.5,030.0,16.8,0000.0,0014.22,0004.20,0003.21
2023-09-23 02:12:00,SystemResetWarning,0827.2,4.98,000.00,028.3,027.2,000.0,036.5,030.0,16.6,0000.0,0014.31,0004.20,0003.20
2023-09-23 02:13:00,SystemResetWarning,0827.1,4.99,000.00,028.3,027.3,000.0,036.5,030.1,16.6,0000.0,0014.50,0004.27,0003.20
2023-09-23 02:14:00,SystemResetWarning,0827.2,5.00,000.00,028.4,027.3,000.0,036.5,030.1,16.5,0000.0,0014.94,0004.34,0003.20
2023-09-23 02:15:00,SystemResetWarning,0827.1,5.00,000.00,028.4,026.6,000.0,036.5,030.0,16.4,0000.0,0015.39,0004.38,0003.20
2023-09-23 02:16:00,SystemResetWarning,0827.2,5.00,000.00,028.3,024.9,000.0,036.5,029.7,16.3,0000.0,0015.12,0004.40,0003.20
2023-09-23 02:17:00,SystemResetWarning,0827.2,5.01,000.00,028.2,024.6,000.0,036.4,029.5,16.2,0000.0,0013.59,0004.38,0003.21
2023-09-23 02:18:00,SystemResetWarning,0827.2,5.01,000.00,028.1,024.8,000.0,036.4,029.5,16.2,0000.0,0012.62,0004.38,0003.22
2023-09-23 02:19:00,SystemResetWarning,0827.2,4.99,000.00,028.0,025.1,000.0,036.4,029.5,16.7,0000.0,0012.55,0004.42,0003.23
2023-09-23 02:20:00,SystemResetWarning,0827.1,5.01,000.00,028.0,025.5,000.0,036.4,029.5,16.6,0000.0,0012.00,0004.48,0003.25
2023-09-23 02:21:00,SystemResetWarning,0827.2,4.99,000.00,028.0,025.8,000.0,036.4,029.6,17.7,0000.0,0011.67,0004.52,0003.28
2023-09-23 02:22:00,SystemResetWarning,0827.2,4.99,000.00,028.1,026.1,000.0,036.4,029.7,17.1,0000.0,0010.98,0004.58,0003.32
2023-09-23 02:23:00,SystemResetWarning,0827.3,4.99,000.00,028.1,026.3,000.0,036.4,029.7,16.2,0000.0,0012.54,0004.66,0003.37
2023-09-23 02:24:00,SystemResetWarning,0827.3,5.00,000.00,028.1,026.5,000.0,036.4,029.8,16.3,0000.0,0013.42,0004.64,0003.39
2023-09-23 02:25:00,SystemResetWarning,0827.4,5.00,000.00,028.1,026.7,000.0,036.4,029.8,16.6,0000.0,0013.02,0004.55,0003.40
2023-09-23 02:26:00,SystemResetWarning,0827.4,5.01,000.00,028.2,026.9,000.0,036.5,029.9,16.8,0000.0,0012.77,0004.58,0003.41
2023-09-23 02:27:00,SystemResetWarning,0827.4,5.00,000.00,028.2,027.0,000.0,036.5,029.9,17.4,0000.0,0013.37,0004.58,0003.45
2023-09-23 02:28:00,SystemResetWarning,0827.4,4.99,000.00,028.3,027.1,000.0,036.5,030.0,18.4,0000.0,0014.16,0004.64,0003.48
2023-09-23 02:29:00,SystemResetWarning,0827.4,5.00,000.00,028.3,027.2,000.0,036.5,030.0,18.8,0000.0,0014.37,0004.69,0003.51
2023-09-23 02:30:00,SystemResetWarning,0827.4,5.00,000.00,028.3,027.3,000.0,036.5,030.1,19.3,0000.0,0015.26,0004.75,0003.56
2023-09-23 02:31:00,SystemResetWarning,0827.4,5.00,000.00,028.4,027.2,000.0,036.6,030.1,20.3,0000.0,0015.37,0004.77,0003.59
2023-09-23 02:32:00,SystemResetWarning,0827.4,4.99,000.00,028.3,025.7,000.0,036.5,029.7,21.6,0000.0,0015.43,0004.78,0003.59
2023-09-23 02:33:00,SystemResetWarning,0827.4,5.01,000.00,028.2,024.6,000.0,036.5,029.6,22.0,0000.0,0017.40,0004.85,0003.60
2023-09-23 02:34:00,SystemResetWarning,0827.4,5.01,000.00,028.1,024.6,000.0,036.4,029.5,22.1,0000.0,0017.96,0004.83,0003.60
2023-09-23 02:35:00,SystemResetWarning,0827.4,4.99,000.00,028.0,024.9,000.0,036.4,029.5,22.4,0000.0,0016.13,0004.80,0003.59
2023-09-23 02:36:00,SystemResetWarning,0827.4,5.00,000.00,028.0,025.2,000.0,036.4,029.5,21.9,0000.0,0016.39,0004.79,0003.58
2023-09-23 02:37:00,SystemResetWarning,0827.4,4.99,000.00,028.0,025.6,000.0,036.4,029.6,22.1,0000.0,0017.19,0004.83,0003.59
2023-09-23 02:38:00,SystemResetWarning,0827.4,5.00,000.00,028.0,025.9,000.0,036.4,029.6,21.9,0000.0,0016.96,0004.83,0003.61
2023-09-23 02:39:00,SystemResetWarning,0827.4,5.00,000.00,028.1,026.2,000.0,036.4,029.7,21.8,0000.0,0016.76,0004.83,0003.63
2023-09-23 02:40:00,SystemResetWarning,0827.4,5.00,000.00,028.1,026.4,000.0,036.4,029.7,22.5,0000.0,0017.65,0004.84,0003.64
2023-09-23 02:41:00,SystemResetWarning,0827.4,4.99,000.00,028.1,026.6,000.0,036.4,029.8,23.1,0000.0,0018.49,0004.87,0003.65
2023-09-23 02:42:00,SystemResetWarning,0827.4,5.00,000.00,028.2,026.8,000.0,036.4,029.9,22.7,0000.0,0018.43,0004.84,0003.65
2023-09-23 02:43:00,SystemResetWarning,0827.6,5.00,000.00,028.2,026.9,000.0,036.5,029.9,22.6,0000.0,0018.96,0004.91,0003.68
2023-09-23 02:44:00,SystemResetWarning,0827.5,5.00,000.00,028.2,027.0,000.0,036.5,030.0,22.3,0000.0,0018.71,0004.98,0003.71
2023-09-23 02:45:00,SystemResetWarning,0827.7,5.00,000.00,028.3,027.1,000.0,036.5,030.0,21.7,0000.0,0016.76,0004.98,0003.74
2023-09-23 02:46:00,SystemResetWarning,0827.5,5.00,000.00,028.3,027.2,000.0,036.5,030.1,21.1,0000.0,0017.08,0005.04,0003.77
2023-09-23 02:47:00,SystemResetWarning,0827.5,5.00,000.00,028.3,027.3,000.0,036.5,030.1,19.9,0000.0,0018.23,0005.13,0003.81
2023-09-23 02:48:00,SystemResetWarning,0827.5,4.99,000.00,028.3,026.7,000.0,036.5,030.0,19.0,0000.0,0017.92,0005.15,0003.84
2023-09-23 02:49:00,SystemResetWarning,0827.5,4.99,000.00,028.2,025.0,000.0,036.5,029.6,19.1,0000.0,0018.04,0005.15,0003.85
2023-09-23 02:50:00,SystemResetWarning,0827.5,5.01,000.00,028.1,024.6,000.0,036.4,029.5,19.3,0000.0,0017.76,0005.22,0003.84
2023-09-23 02:51:00,SystemResetWarning,0827.6,5.01,000.00,028.1,024.8,000.0,036.4,029.4,20.3,0000.0,0016.90,0005.25,0003.84
2023-09-23 02:52:00,SystemResetWarning,0827.7,5.00,000.00,028.0,025.1,000.0,036.4,029.4,18.9,0000.0,0015.50,0005.23,0003.83
2023-09-23 02:53:00,SystemResetWarning,0827.7,5.00,000.00,028.0,025.4,000.0,036.4,029.5,18.6,0000.0,0016.26,0005.24,0003.81
2023-09-23 02:54:00,SystemResetWarning,0827.7,5.00,000.00,028.0,025.7,000.0,036.4,029.5,18.4,0000.0,0016.37,0005.19,0003.77
2023-09-23 02:55:00,SystemResetWarning,0827.7,4.99,000.00,028.0,026.0,000.0,036.4,029.6,17.7,0000.0,0015.61,0005.10,0003.74
2023-09-23 02:56:00,SystemResetWarning,0827.7,5.00,000.00,028.0,026.3,000.0,036.4,029.7,17.2,0000.0,0016.75,0005.12,0003.72
2023-09-23 02:57:00,SystemResetWarning,0827.7,5.00,000.00,028.1,026.5,000.0,036.4,029.8,16.9,0000.0,0017.32,0005.13,0003.72
2023-09-23 02:58:00,SystemResetWarning,0827.7,5.00,000.00,028.1,026.7,000.0,036.4,029.8,16.6,0000.0,0016.71,0005.06,0003.71
2023-09-23 02:59:00,SystemResetWarning,0827.7,5.01,000.00,028.1,026.8,000.0,036.4,029.8,17.4,0000.0,0016.48,0005.03,0003.68
